Weather History for KEKN - November, 2014

Change the Weather History Date:

Monday, November 17, 2014

  Actual Average Record
Temperature  
Mean Temperature 33 °F 42 °F  
Max Temperature 47 °F 53 °F 75 °F (1958)
Min Temperature 18 °F 30 °F -2 °F (1933)
Degree Days  
Heating Degree Days 32 23  
Month to date heating degree days 424 357  
Since 1 July heating degree days 959 948  
Cooling Degree Days 0 0  
Month to date cooling degree days 0 0  
Year to date cooling degree days 505 475  
Moisture  
Dew Point 34 °F    
Average Humidity 89    
Maximum Humidity 100    
Minimum Humidity 78    
Precipitation  
Precipitation 0.33 in 0.12 in 1.23 in (1980)
Month to date precipitation 1.60 1.87  
Year to date precipitation 37.60 41.16  
Snow  
Snow 0.00 in - - ()
Month to date snowfall T  
Since 1 September snowfall T  
Snow Depth 0.00 in    
Sea Level Pressure  
Sea Level Pressure 29.76 in    
Wind  
Wind Speed 5 mph (WNW)    
Max Wind Speed 23 mph    
Max Gust Speed 32 mph    
Visibility 5 miles    
Events Rain , Snow    
T = Trace of Precipitation, MM = Missing Value Source: NWS Daily Summary

Daily Weather History Graph

Daily Weather History Graph

Search for Another Location

Airport or City:

Trip Planner

Search our weather history database for the weather conditions in past years. The results will help you decide how hot, cold, wet, or windy it might be!

Date:

Astronomy

Nov. 17, 2014 Rise Set
Actual Time 7:04 AM EST 5:04 PM EST
Civil Twilight 6:35 AM EST 5:32 PM EST
Nautical Twilight 6:03 AM EST 6:05 PM EST
Astronomical Twilight 5:31 AM EST 6:36 PM EST
Moon 2:07 AM EST (11/17) 2:24 PM EST (11/17)
Length of Visible Light 10h 57m
Length of Day
9h 59m
Waning Crescent, 23% of the Moon is Illuminated
Nov 17
Waning Crescent
Nov 22
New
Nov 29
First Quarter
Dec 6
Full
Dec 14
Last Quarter

Hourly Weather History & Observations

Time (EST) Temp. Windchill Dew Point Humidity Pressure Visibility Wind Dir Wind Speed Gust Speed Precip Events Conditions
12:07 AM 39.2 °F - 39.2 °F 100% 29.87 in 1.5 mi Calm Calm - N/A Rain Light Rain
12:16 AM 39.9 °F - 39.9 °F 100% 29.86 in 3.0 mi Calm Calm - 0.01 in Rain Light Rain
12:23 AM 39.9 °F - 39.9 °F 100% 29.86 in 2.5 mi Calm Calm - 0.02 in Rain Light Rain
12:37 AM 42.1 °F 38.4 °F 41.0 °F 96% 29.86 in 7.0 mi SSE 5.8 mph - 0.02 in Rain Light Rain
12:51 AM 42.1 °F 38.4 °F 41.0 °F 96% 29.90 in 7.0 mi SSE 5.8 mph - 0.02 in Rain Light Rain
1:09 AM 43.0 °F 38.8 °F 41.0 °F 93% 29.86 in 10.0 mi SE 6.9 mph - 0.00 in Rain Light Rain
1:51 AM 42.1 °F 37.7 °F 41.0 °F 96% 29.88 in 6.0 mi SE 6.9 mph - 0.01 in   Overcast
2:51 AM 42.1 °F - 42.1 °F 100% 29.85 in 9.0 mi Calm Calm - N/A   Overcast
3:51 AM 41.0 °F - 41.0 °F 100% 29.81 in 3.0 mi Calm Calm - N/A   Overcast
4:51 AM 42.1 °F - 42.1 °F 100% 29.78 in 4.0 mi Calm Calm - 0.00 in Rain Light Rain
5:02 AM 42.1 °F - 42.1 °F 100% 29.73 in 4.0 mi Calm Calm - 0.00 in Rain Light Rain
5:51 AM 42.1 °F - 42.1 °F 100% 29.78 in 3.0 mi Calm Calm - 0.02 in Rain Light Rain
6:51 AM 45.0 °F 42.6 °F 44.1 °F 97% 29.74 in 7.0 mi Variable 4.6 mph - 0.11 in Rain Rain
7:51 AM 46.0 °F - 45.0 °F 96% 29.68 in 9.0 mi Calm Calm - 0.02 in Rain Light Rain
8:37 AM 44.1 °F - 44.1 °F 100% 29.62 in 2.0 mi Calm Calm - 0.01 in Rain Rain
8:51 AM 45.0 °F - 45.0 °F 100% 29.65 in 2.0 mi Calm Calm - 0.02 in Rain Light Rain
9:08 AM 45.0 °F 42.6 °F 45.0 °F 100% 29.61 in 4.0 mi WNW 4.6 mph - 0.00 in   Overcast
9:51 AM 46.9 °F - 46.9 °F 100% 29.63 in 4.0 mi NNW 4.6 mph - 0.01 in Rain Light Rain
10:04 AM 46.9 °F - 46.9 °F 100% 29.58 in 10.0 mi North 8.1 mph - 0.00 in   Overcast
10:23 AM 46.9 °F - 46.0 °F 97% 29.58 in 10.0 mi North 9.2 mph - 0.00 in   Overcast
10:51 AM 46.0 °F - 45.0 °F 96% 29.60 in 10.0 mi Calm Calm - 0.00 in   Overcast
11:16 AM 45.0 °F 39.3 °F 44.1 °F 97% 29.56 in 10.0 mi NNW 11.5 mph - 0.00 in Rain Light Rain
11:43 AM 45.0 °F 39.7 °F 43.0 °F 93% 29.58 in 7.0 mi WNW 10.4 mph - 0.01 in Rain Light Rain
11:51 AM 45.0 °F - 43.0 °F 93% 29.61 in 5.0 mi Calm Calm - 0.01 in Rain Light Rain
12:51 PM 42.1 °F 37.7 °F 39.9 °F 92% 29.65 in 5.0 mi West 6.9 mph 24.2 mph 0.00 in Rain Light Rain
1:34 PM 39.0 °F 30.6 °F 37.0 °F 93% 29.65 in 5.0 mi NW 15.0 mph 20.7 mph 0.01 in Rain Light Rain
1:51 PM 37.0 °F 29.8 °F 35.1 °F 93% 29.72 in 4.0 mi WNW 10.4 mph - 0.01 in Rain Light Rain
2:08 PM 37.0 °F 28.5 °F 34.0 °F 89% 29.69 in 5.0 mi WNW 13.8 mph 20.7 mph 0.00 in Rain Light Rain
2:33 PM 35.6 °F 31.7 °F 33.8 °F 93% 29.70 in 4.0 mi NW 4.6 mph - N/A Snow Light Snow
2:42 PM 35.1 °F 29.3 °F 34.0 °F 96% 29.71 in 2.5 mi West 6.9 mph - 0.02 in Snow Light Snow
2:46 PM 33.8 °F 25.8 °F 33.8 °F 100% 29.72 in 1.8 mi West 10.4 mph - 0.03 in Snow Light Snow
2:51 PM 34.0 °F - 33.1 °F 96% 29.76 in 1.5 mi Calm Calm - 0.03 in Snow Light Snow
2:55 PM 34.0 °F - 33.1 °F 96% 29.70 in 2.0 mi Calm Calm - 0.00 in Snow Light Snow
2:59 PM 34.0 °F - 33.1 °F 96% 29.70 in 3.0 mi Calm Calm - 0.01 in Snow Light Snow
3:17 PM 35.1 °F 31.0 °F 33.1 °F 92% 29.71 in 10.0 mi WNW 4.6 mph - 0.01 in   Overcast
3:27 PM 35.1 °F 28.6 °F 33.1 °F 92% 29.70 in 5.0 mi West 8.1 mph - 0.01 in Snow Light Snow
3:51 PM 34.0 °F - 33.1 °F 96% 29.76 in 3.0 mi Calm Calm - 0.01 in Snow Light Snow
4:12 PM 34.0 °F 31.0 °F 33.1 °F 96% 29.71 in 2.0 mi North 3.5 mph - 0.00 in Snow Light Snow
4:19 PM 33.1 °F 30.0 °F 33.1 °F 100% 29.72 in 1.0 mi WNW 3.5 mph - 0.01 in Snow Light Snow
4:40 PM 33.1 °F 25.5 °F 30.0 °F 89% 29.74 in 2.5 mi West 9.2 mph - 0.01 in Snow Light Snow
4:47 PM 33.8 °F 23.9 °F 30.2 °F 87% 29.74 in 9.0 mi WSW 15.0 mph 19.6 mph 0.01 in   Overcast
4:51 PM 33.1 °F 26.1 °F 30.0 °F 89% 29.79 in 10.0 mi West 8.1 mph 19.6 mph 0.01 in   Overcast
5:17 PM 32.0 °F 23.6 °F 28.9 °F 88% 29.76 in 10.0 mi West 10.4 mph - 0.00 in   Overcast
5:51 PM 32.0 °F 24.8 °F 30.0 °F 92% 29.82 in 4.0 mi West 8.1 mph - 0.01 in Snow Light Snow
6:51 PM 30.0 °F 19.1 °F 28.0 °F 92% 29.84 in 3.0 mi WNW 15.0 mph 23.0 mph 0.01 in Snow Light Snow
7:35 PM 30.0 °F 18.7 °F 26.1 °F 85% 29.80 in 9.0 mi West 16.1 mph 28.8 mph 0.01 in   Overcast
7:51 PM 30.0 °F 25.2 °F 24.1 °F 79% 29.86 in 10.0 mi Variable 4.6 mph 27.6 mph 0.01 in Snow Light Snow
8:51 PM 28.0 °F 20.8 °F 23.0 °F 81% 29.86 in 6.0 mi WNW 6.9 mph 19.6 mph 0.00 in Snow Light Snow
9:10 PM 27.0 °F 17.3 °F 23.0 °F 85% 29.82 in 1.5 mi NNW 10.4 mph 24.2 mph 0.00 in Snow Light Snow
9:24 PM 26.1 °F 14.5 °F 23.0 °F 88% 29.83 in 1.2 mi NW 13.8 mph 27.6 mph 0.00 in Snow Light Snow
9:32 PM 25.0 °F 13.1 °F 21.9 °F 88% 29.84 in 2.0 mi West 13.8 mph 28.8 mph 0.01 in Snow Light Snow
9:51 PM 24.1 °F 13.7 °F 21.0 °F 88% 29.90 in 1.5 mi NW 10.4 mph 19.6 mph 0.01 in Snow Light Snow
10:27 PM 21.0 °F 11.4 °F 19.0 °F 92% 29.86 in 1.0 mi NW 8.1 mph 19.6 mph 0.00 in Snow Light Snow
10:37 PM 21.0 °F 8.6 °F 18.0 °F 88% 29.87 in 0.8 mi NW 12.7 mph 20.7 mph 0.00 in Snow Light Snow
10:51 PM 19.9 °F 7.9 °F 17.1 °F 89% 29.94 in 0.8 mi NW 11.5 mph 23.0 mph 0.01 in Snow Light Snow
11:01 PM 19.9 °F 8.6 °F 17.1 °F 89% 29.88 in 1.2 mi NNW 10.4 mph 18.4 mph 0.00 in Snow Light Snow
11:51 PM 19.0 °F 7.5 °F 14.0 °F 81% 29.97 in 1.8 mi WNW 10.4 mph 18.4 mph 0.00 in Snow Light Snow
11:58 PM 17.6 °F 4.3 °F 14.0 °F 86% 29.91 in 2.0 mi WNW 12.7 mph - N/A Snow Light Snow